Regional Weather Roundup
Issued by NWS

Home | Current Version | Previous Version | Text Only | Print | Product List | Glossary On
Versions: 1 2 3 4 5 6 7 8 9 10 11 12 13 14 15 16 17 18 19 20 21 22 23 24 25 26 27 28 29 30 31 32 33 34 35 36 37 38 39 40 41 42 43 44 45 46 47 48 49 50
000
ASUS43 KBIS 180520
RWRND

NORTH DAKOTA REGIONAL WEATHER ROUNDUP
NATIONAL WEATHER SERVICE BISMARCK ND
1100 PM CST WED DEC 17 2014

NOTE: "FAIR" INDICATES FEW OR NO CLOUDS BELOW 12,000 FEET WITH NO
SIGNIFICANT WEATHER AND/OR OBSTRUCTIONS TO VISIBILITY.


NDZ001>003-009>011-017-180600-
NORTHWEST NORTH DAKOTA

CITY           SKY/WX    TMP DP  RH WIND       PRES   REMARKS
WILLISTON      CLOUDY    20  15  81 SE9       30.06F WCI   9
MINOT          MOCLDY     5   1  83 E3        30.14F
MINOT AFB      MOCLDY     4   2  94 SE6       30.15F WCI  -7
$$

NDZ018>021-031>035-040>046-180600-
SOUTHWEST NORTH DAKOTA

CITY           SKY/WX    TMP DP  RH WIND       PRES   REMARKS
BISMARCK       CLOUDY    17  13  84 SE8       30.17F WCI   7
DICKINSON      CLOUDY    18  15  88 SE10      30.02S WCI   6
GARRISON         N/A     11   8  88 E6        30.12F WCI   1
HETTINGER ARPT CLOUDY    18  15  88 SE12      30.04F FOG     WCI   5
$$

NDZ004>008-012>016-024-026-027-054-180600-
NORTHEAST NORTH DAKOTA

CITY           SKY/WX    TMP DP  RH WIND       PRES   REMARKS
GRAND FORKS    MOCLDY     8   4  83 CALM      30.32F
GRND FRKS AFB  PTCLDY     6   5  98 SE3       30.30F
DEVILS LAKE    PTCLDY     3  -8  60 SE5       30.21F WCI  -6
$$

NDZ022-023-025-028>030-036>039-047>053-180600-
SOUTHEAST NORTH DAKOTA

CITY           SKY/WX    TMP DP  RH WIND       PRES   REMARKS
FARGO          PTCLDY     9   5  84 NE5       30.31F WCI   1
JAMESTOWN      PTCLDY     4   1  88 SE5       30.23R WCI  -5
$$



USA.gov is the U.S. government's official web portal to all federal, state and local government web resources and services.